sat.trackr.live / text

‹ back to catalog

IRIDE-MS2-HEO-7

NORAD 68981 · 2026-100B

PAYLOAD ACTIVE UNKNOWN

§ Identity

Operator
Country
IT
Launch date
2026-05-03
Launch site
AFWTR
Launch vehicle
Mass (kg)
RCS (m²)

External: N2YO · Heavens-Above · Gunter

§ Orbital elements

Epoch: 2026-09-20T04:22:19.620192Z

Period
96.57 min
Inclination
97.7227°
Eccentricity
0.0004707
Mean motion
14.91222967 rev/d
Perigee alt
590.8 km
Apogee alt
597.4 km
Semi-major
6,972.3 km
B*
9.8270e-5
RAAN
158.6580°
Arg perigee
175.0804°
Mean anomaly
185.0461°
Rev number
2,085

§ Raw data

IRIDE-MS2-HEO-71 68981U 26100B   26263.18217153  .00000922  00000+0  98270-4 0  99902 68981  97.7227 158.6580 0004707 175.0804 185.0461 14.91222967 20857

JSON: /api/v1/satellites/68981 · /tle

For live sub-satellite position, see the globe view (requires WebGL).

§ Visibility from observer

Set your observer location to see the next 7 days of passes ≥ 10°. The values pass through the URL so the page stays shareable.

No JS? Fill the form by hand. The geolocation button needs JavaScript.